Temperature
8 8 8 9 9 9 9 9 9 9 9 9 9 9 9 9 9 9 9 10 10 10 10 10 10 10 10 10 10 10 10 10 10 10 10 11 11 11 11 11 11 11 11
8 8 8 8 8 8 8 8 8 9 9 9 9 9 9 9 9 9 9 9 9 9 9 9 9 9 9 9 9 9 9 10 10 10 10 10 10 10 10 10 10 10 10
7 7 7 7 7 8 8 8 8 8 8 8 8 8 8 8 8 8 8 8 8 9 9 9 9 9 9 9 9 9 9 9 9 9 9 9 9 9 9 10 10 10 10
6 6 6 7 7 7 7 7 7 7 7 7 7 7 7 8 8 7 7 7 8 8 8 8 8 8 8 8 8 8 8 8 8 8 8 8 9 9 9 9 9 9 9
6 6 6 6 6 6 6 6 6 6 7 7 7 7 7 6 7 6 6 7 7 7 7 7 8 8 8 8 8 8 8 7 7 7 8 8 8 8 8 8 8 8 9
5 5 5 5 5 5 5 5 6 6 6 6 6 6 6 6 6 6 6 6 6 6 6 6 7 7 7 7 7 7 7 7 7 7 7 7 7 7 7 7 8 8 8
4 4 4 5 5 5 5 5 5 5 5 5 5 5 5 5 5 5 5 5 5 5 5 5 6 6 6 6 6 7 7 7 6 6 6 7 7 7 7 7 7 7 7
4 4 4 4 4 4 4 4 4 4 4 4 4 4 3 4 4 4 4 4 4 5 5 5 5 5 5 5 6 6 6 6 6 6 6 6 6 6 6 6 6 6 6
3 3 3 3 3 3 3 3 3 3 3 3 3 3 3 4 3 3 4 4 4 4 4 4 4 4 4 4 5 5 5 6 5 5 5 5 5 5 5 6 6 6 6
3 3 3 3 2 2 2 2 2 2 2 2 3 3 3 2 2 2 2 3 3 3 3 3 3 4 4 4 4 4 4 5 5 5 5 5 5 5 5 5 5 5 5
2 2 2 2 2 2 2 2 2 2 2 2 2 2 2 2 2 1 1 1 2 2 2 3 3 3 3 3 3 3 4 4 4 4 4 4 4 4 4 5 5 5 5
2 1 1 1 1 1 1 1 1 1 1 1 1 1 1 1 1 1 0 0 1 1 2 2 2 2 2 2 2 3 3 3 3 3 3 3 4 4 4 4 4 4 4
1 1 1 1 1 1 1 1 1 1 1 1 1 1 1 1 0 0 0 -0 -0 0 1 1 1 1 1 1 1 2 2 2 2 2 3 3 3 3 3 3 4 4 4
1 1 0 0 0 0 0 0 0 0 -0 0 0 0 0 0 0 -0 -0 -1 -1 -1 -1 -0 0 0 1 1 1 1 1 1 2 2 2 2 2 3 3 3 3 3 3
0 -0 -0 -0 -0 -0 -0 -0 -1 -1 -1 -1 -0 -0 -0 -0 -0 -1 -1 -1 -1 -2 -1 -1 -1 -0 -0 -0 0 0 0 1 1 1 1 1 2 2 2 2 2 2 3
-1 -1 -1 -1 -1 -1 -1 -1 -1 -1 -1 -1 -1 -1 -1 -1 -1 -1 -1 -2 -2 -2 -2 -2 -2 -1 -1 -1 -1 -1 -0 0 0 0 0 1 1 1 1 1 1 2 2
-1 -1 -1 -1 -1 -1 -1 -2 -2 -2 -2 -2 -2 -2 -2 -2 -2 -2 -2 -2 -2 -3 -3 -2 -2 -2 -2 -1 -1 -1 -1 -1 -1 -0 -0 0 0 0 1 1 1 1 1
-2 -2 -2 -2 -2 -2 -2 -2 -2 -2 -3 -3 -3 -3 -3 -3 -3 -3 -3 -3 -3 -3 -3 -3 -3 -3 -2 -2 -2 -2 -2 -1 -1 -1 -1 -1 -0 -0 0 0 0 1 1
-2 -3 -3 -3 -3 -3 -3 -3 -3 -3 -3 -3 -3 -4 -4 -4 -4 -4 -4 -4 -4 -4 -4 -4 -4 -3 -3 -3 -3 -3 -2 -2 -2 -2 -1 -1 -1 -1 -0 -0 -0 -0 0
-3 -3 -3 -3 -3 -3 -3 -3 -4 -4 -4 -4 -4 -4 -4 -4 -4 -4 -4 -4 -4 -4 -4 -5 -4 -4 -4 -4 -4 -4 -3 -3 -3 -2 -2 -2 -2 -1 -1 -1 -1 -1 -1
-4 -4 -4 -4 -4 -4 -4 -4 -4 -4 -4 -4 -4 -4 -5 -5 -5 -5 -5 -5 -5 -5 -5 -5 -5 -5 -5 -5 -4 -4 -4 -4 -4 -4 -3 -3 -3 -2 -2 -2 -2 -2 -1
-4 -4 -4 -4 -4 -4 -4 -5 -5 -5 -5 -5 -5 -5 -5 -5 -5 -5 -5 -5 -5 -5 -6 -6 -6 -6 -5 -5 -5 -5 -5 -5 -5 -4 -4 -4 -4 -3 -3 -3 -2 -2 -2
-5 -5 -5 -5 -5 -5 -5 -5 -5 -5 -6 -6 -6 -6 -6 -5 -5 -6 -6 -6 -6 -6 -6 -6 -6 -6 -6 -6 -6 -6 -6 -6 -6 -5 -5 -5 -4 -4 -4 -3 -3 -3 -3
-5 -5 -5 -5 -5 -5 -5 -6 -6 -6 -6 -6 -6 -6 -6 -6 -6 -6 -6 -6 -6 -6 -6 -6 -6 -6 -6 -6 -6 -6 -6 -6 -6 -6 -6 -6 -5 -5 -4 -4 -4 -3 -3
-5 -6 -6 -6 -6 -6 -6 -6 -6 -6 -7 -7 -6 -7 -7 -6 -7 -7 -7 -7 -7 -6 -6 -6 -7 -7 -6 -6 -7 -7 -7 -7 -7 -7 -6 -6 -6 -6 -5 -5 -4 -4 -4
-6 -6 -6 -6 -6 -6 -7 -7 -7 -7 -7 -7 -7 -7 -7 -7 -7 -7 -7 -7 -7 -7 -7 -7 -7 -7 -7 -7 -7 -7 -7 -7 -7 -7 -7 -7 -7 -7 -6 -6 -5 -5 -5
Wind_Speed
3 4 4 4 4 4 4 4 4 4 4 4 4 4 4 5 5 4 5 10 10 9 9 8 8 8 8 7 6 4 3 2 1 1 2 2 2 2 2 2 3 3 3
3 3 3 3 4 4 4 3 3 3 3 3 4 4 4 4 5 5 4 6 9 10 10 9 8 8 8 7 7 6 4 3 2 1 1 1 0 0 0 0 1 1 1
3 3 3 3 3 3 3 3 3 3 3 3 3 4 4 4 4 5 5 4 5 8 10 10 9 9 8 7 7 6 5 5 3 1 1 2 2 2 2 1 1 1 1
3 3 2 3 3 2 3 3 2 2 3 3 2 2 3 3 4 4 5 5 5 5 7 10 11 10 9 9 7 6 5 5 4 3 2 2 3 3 3 3 2 2 2
2 2 2 2 2 2 2 2 2 2 2 3 2 2 2 2 2 3 4 5 6 6 6 7 9 10 9 9 9 8 6 6 6 5 3 3 3 3 4 4 4 4 3
2 2 2 2 2 2 2 2 3 3 2 2 1 1 1 1 2 2 3 4 5 6 6 6 6 6 8 9 9 10 9 7 7 6 5 4 5 5 5 4 4 5 5
2 2 2 2 1 1 1 2 2 2 2 2 1 1 0 1 1 1 2 3 4 5 5 6 6 6 6 7 9 10 10 9 8 8 7 5 5 6 6 6 6 6 6
2 2 2 2 1 1 1 1 1 1 1 2 1 1 1 2 1 1 2 2 3 4 4 5 6 6 6 5 7 9 10 10 10 9 9 8 7 6 7 7 8 7 7
2 2 2 2 2 1 1 1 0 0 0 1 2 2 1 2 1 1 1 2 2 3 3 4 5 5 6 6 6 8 11 10 10 10 9 9 9 8 8 9 9 9 8
2 2 2 2 2 1 1 1 1 1 1 1 1 1 2 1 2 1 2 2 3 3 3 3 4 5 5 5 6 8 10 11 11 11 11 10 10 9 9 9 10 9 9
2 2 2 2 2 1 1 1 1 1 1 2 2 1 1 2 3 3 3 3 3 3 3 3 3 4 5 5 6 8 11 11 12 12 12 12 11 11 10 10 10 10 10
2 2 2 2 1 1 1 2 1 2 2 2 2 2 2 2 2 3 4 4 4 3 4 3 3 4 4 6 7 9 11 12 12 13 13 13 12 12 12 11 11 11 12
2 2 2 2 1 1 1 1 2 2 2 2 2 2 2 2 3 3 4 4 5 4 4 3 3 4 4 6 7 10 10 11 12 13 13 14 14 13 13 12 11 11 11
3 3 2 2 2 2 2 2 1 1 2 2 2 3 2 2 3 3 4 5 5 4 4 4 3 4 5 6 8 10 10 11 13 13 14 14 14 14 13 13 12 11 11
3 3 3 2 2 2 2 2 2 2 2 2 2 2 2 2 3 3 3 4 5 5 5 4 3 4 6 8 9 10 10 12 13 14 14 14 14 13 13 12 12 12 12
3 3 3 3 3 2 2 2 2 2 2 2 2 3 3 3 3 3 3 4 5 6 6 4 5 7 9 9 10 10 11 13 13 13 13 14 13 13 12 12 12 13 13
4 4 3 3 3 3 3 3 3 3 3 3 3 3 4 4 4 3 4 4 5 6 7 7 6 7 9 9 10 10 11 11 11 12 13 14 14 13 12 12 12 12 12
4 3 3 3 3 3 3 4 4 4 4 4 4 4 5 4 5 5 4 5 6 6 7 9 8 7 9 9 10 10 10 10 11 12 14 14 14 14 13 12 12 12 11
3 3 3 3 4 4 4 4 4 5 5 5 5 5 5 6 6 5 6 6 6 6 7 8 8 8 8 8 9 9 10 9 10 11 13 13 14 14 14 13 13 12 12
4 4 4 4 4 4 4 4 5 5 5 5 5 6 6 7 7 7 6 7 7 7 7 8 8 8 8 8 8 8 8 8 8 10 12 12 13 13 13 13 12 12 12
3 3 4 4 4 4 4 4 5 5 6 6 6 6 7 7 8 8 7 7 7 7 7 7 8 8 8 7 7 7 9 9 9 8 8 9 10 10 10 11 11 11 12
3 3 4 4 4 3 5 6 5 5 6 6 6 6 7 8 9 11 12 11 10 9 8 8 8 9 10 9 8 8 8 9 9 7 8 9 9 9 9 9 11 12 13
3 4 4 4 4 5 6 7 7 5 6 6 6 6 6 6 8 8 10 11 11 12 12 11 11 11 11 10 10 10 9 10 10 9 9 10 9 9 9 10 12 13 14
3 4 4 4 4 5 6 6 6 6 6 6 6 7 7 7 7 8 9 9 9 10 11 10 10 10 10 10 10 10 11 11 11 10 9 10 9 9 10 10 12 13 14
3 3 4 4 4 4 5 5 5 4 5 6 6 6 7 7 9 10 9 9 10 9 10 12 13 14 14 14 13 9 9 8 9 9 7 8 9 9 9 9 10 12 12
3 3 3 3 4 4 4 5 5 4 5 5 5 6 7 8 10 10 8 8 9 8 8 8 10 11 11 11 12 10 9 9 9 8 6 7 8 7 7 7 6 8 9
Wind_Direction
67 62 54 48 42 35 34 32 35 41 48 54 54 53 55 54 52 53 48 43 38 35 32 31 30 28 29 31 29 17 14 15 21 36 50 60 57 65 78 76 76 74 69
72 68 63 49 43 35 30 29 34 42 44 52 59 57 57 58 53 50 43 45 42 38 35 32 29 25 23 23 21 18 15 20 7 337 330 300 279 132 116 129 105 94 72
79 75 73 60 44 39 36 34 36 45 49 50 58 60 61 58 58 50 40 35 40 44 38 31 26 19 14 14 16 9 6 13 14 349 307 288 270 257 252 249 241 230 262
84 83 81 71 51 44 44 41 35 37 40 36 39 54 66 65 58 49 43 36 33 30 35 30 24 21 19 13 7 3 360 3 358 345 315 301 285 268 256 249 245 242 247
92 88 83 76 66 56 56 48 38 32 30 30 31 37 55 67 63 52 47 41 36 28 23 24 24 22 18 16 11 4 0 354 347 338 326 306 289 282 268 256 254 251 251
109 97 92 84 71 72 62 55 48 37 25 17 27 39 44 61 55 48 37 36 33 25 20 14 12 13 19 14 8 1 357 350 343 337 319 309 290 282 283 278 272 265 259
125 115 107 105 86 82 70 65 62 57 26 2 354 18 102 123 50 20 17 19 23 20 18 12 8 3 1 8 7 358 352 350 343 336 324 306 295 283 280 282 278 272 270
136 135 132 130 130 115 102 83 72 51 9 350 318 253 219 202 195 325 338 356 4 5 7 8 5 6 355 353 360 358 347 344 340 335 328 315 302 294 286 284 279 276 273
142 140 148 143 149 159 164 166 121 267 281 333 334 298 254 240 291 239 282 310 338 339 346 356 356 360 357 353 346 353 348 340 334 327 323 322 316 306 297 290 286 280 275
155 149 148 151 161 173 182 196 215 250 253 265 303 327 319 305 260 257 244 269 306 314 321 329 341 345 346 346 346 346 342 335 328 324 319 315 315 305 298 291 286 278 279
162 158 159 159 165 176 182 197 216 234 251 257 260 271 266 261 263 256 263 278 293 301 309 308 317 325 334 335 333 336 334 326 319 316 314 310 309 307 300 290 284 283 279
172 169 170 167 170 178 188 201 215 229 240 244 247 250 260 254 253 257 266 277 288 299 300 295 300 312 322 324 325 330 327 323 318 313 310 308 306 306 302 293 286 282 277
189 188 180 182 184 187 194 200 209 227 236 242 243 245 255 266 263 263 266 275 280 288 284 278 292 302 314 317 320 326 318 318 315 310 307 307 307 307 304 296 288 287 281
193 191 192 195 194 193 197 204 210 226 235 241 247 249 249 260 262 259 263 273 276 274 270 272 286 291 309 313 314 314 311 313 310 308 306 307 307 304 303 298 291 287 285
187 187 193 198 205 205 204 210 221 225 233 243 248 252 256 255 263 258 260 264 267 273 275 278 284 296 309 306 305 303 303 306 306 305 304 304 302 301 299 296 293 288 284
187 191 197 203 209 215 217 216 225 229 236 247 252 252 257 258 259 256 250 259 262 266 272 278 288 299 305 302 300 298 297 300 297 299 301 302 299 297 296 293 293 290 283
189 196 201 207 215 221 226 226 225 229 237 247 252 255 258 259 259 258 253 255 259 263 269 280 286 295 297 301 303 300 296 295 293 294 297 299 296 292 290 289 290 288 285
195 200 203 211 219 226 230 233 234 233 236 243 250 254 258 260 258 259 256 255 258 262 269 277 285 291 293 297 300 299 299 297 294 293 292 293 292 290 286 284 283 284 283
204 205 208 215 223 230 233 236 240 240 240 244 250 254 259 259 260 260 259 259 260 262 264 271 280 285 288 291 297 297 297 297 296 295 292 290 289 288 285 280 278 276 278
208 213 220 226 230 235 234 239 244 244 247 250 251 255 258 259 263 265 263 263 263 264 266 267 273 280 284 289 291 293 297 298 298 298 293 292 290 287 282 278 276 272 273
216 220 225 232 236 236 237 245 247 247 252 254 255 257 256 260 264 265 267 265 263 263 266 269 272 279 284 288 287 292 293 299 297 295 294 293 291 288 283 274 270 271 272
220 225 228 231 238 242 250 253 257 254 255 254 258 263 262 258 260 264 269 268 266 265 267 269 272 275 280 283 285 287 291 294 296 297 295 294 293 288 285 282 277 276 274
221 229 233 234 241 251 252 254 257 262 258 258 259 263 264 263 263 266 269 268 265 265 265 268 271 272 279 283 284 283 283 285 288 296 296 289 290 288 289 283 278 277 276
228 236 239 239 244 252 257 257 259 261 259 261 263 265 267 268 265 270 271 268 265 263 263 264 268 272 275 281 278 279 282 283 285 285 284 284 289 290 293 286 279 275 275
233 240 240 238 242 252 257 262 265 263 261 263 264 265 268 272 275 277 273 270 270 270 270 270 272 275 279 281 282 280 279 280 283 286 283 282 288 295 293 286 283 278 275
238 243 247 239 239 251 259 265 269 263 264 267 268 267 266 275 280 280 272 271 274 278 280 279 277 278 278 279 277 270 271 274 281 284 281 283 287 298 295 286 284 288 283
Height
1536 1535 1535 1535 1535 1535 1534 1535 1535 1535 1535 1535 1535 1536 1536 1536 1536 1536 1536 1536 1536 1536 1536 1536 1536 1536 1536 1536 1536 1536 1536 1537 1537 1537 1537 1538 1539 1539 1539 1540 1540 1541 1541
1534 1534 1534 1534 1534 1533 1533 1533 1533 1533 1534 1534 1534 1534 1534 1534 1534 1534 1534 1534 1534 1534 1534 1534 1534 1534 1534 1534 1534 1534 1534 1534 1534 1534 1535 1536 1536 1537 1537 1538 1538 1539 1539
1533 1533 1533 1532 1532 1532 1532 1532 1532 1532 1532 1532 1532 1532 1532 1532 1532 1532 1532 1532 1532 1532 1532 1532 1532 1532 1532 1532 1532 1532 1532 1532 1532 1532 1532 1533 1534 1534 1534 1535 1536 1536 1537
1531 1531 1531 1531 1531 1531 1530 1531 1531 1531 1531 1531 1531 1530 1530 1530 1530 1530 1530 1530 1530 1530 1530 1530 1530 1530 1530 1530 1530 1530 1530 1530 1530 1530 1530 1530 1531 1531 1532 1532 1533 1533 1534
1529 1529 1529 1529 1529 1529 1529 1529 1529 1529 1529 1529 1529 1529 1528 1528 1528 1529 1529 1528 1528 1528 1528 1528 1528 1527 1527 1527 1527 1527 1527 1527 1528 1528 1528 1527 1528 1528 1529 1529 1530 1530 1531
1527 1527 1527 1527 1527 1527 1527 1527 1527 1527 1527 1527 1527 1527 1527 1526 1526 1526 1527 1527 1527 1526 1526 1526 1525 1525 1525 1525 1525 1524 1524 1524 1524 1525 1525 1524 1524 1525 1526 1526 1526 1527 1527
1525 1525 1525 1525 1525 1525 1525 1525 1525 1525 1525 1525 1525 1525 1525 1524 1524 1524 1525 1525 1525 1524 1524 1523 1523 1522 1522 1522 1522 1522 1521 1521 1521 1521 1521 1521 1521 1522 1522 1522 1522 1523 1523
1522 1522 1523 1523 1523 1523 1523 1523 1523 1523 1523 1523 1524 1524 1524 1524 1523 1522 1522 1523 1522 1522 1522 1521 1520 1520 1519 1519 1519 1518 1518 1518 1517 1518 1518 1518 1518 1518 1518 1518 1518 1518 1519
1519 1520 1520 1521 1521 1521 1521 1521 1521 1521 1521 1522 1522 1523 1523 1523 1521 1521 1520 1520 1520 1520 1519 1519 1518 1517 1517 1516 1515 1515 1515 1514 1514 1514 1514 1514 1514 1513 1514 1514 1514 1514 1515
1516 1517 1517 1518 1518 1518 1519 1519 1519 1519 1519 1519 1519 1520 1520 1520 1520 1519 1518 1518 1517 1517 1516 1516 1515 1514 1514 1513 1512 1511 1511 1511 1511 1510 1510 1510 1510 1510 1510 1510 1510 1510 1510
1513 1514 1514 1515 1515 1516 1516 1516 1516 1516 1516 1517 1517 1517 1517 1517 1517 1517 1516 1515 1514 1514 1513 1513 1512 1511 1510 1510 1509 1508 1507 1507 1507 1506 1506 1506 1506 1506 1505 1505 1505 1505 1505
1510 1511 1511 1512 1512 1513 1513 1513 1513 1513 1514 1514 1514 1514 1514 1514 1514 1514 1513 1512 1511 1510 1510 1509 1509 1508 1507 1506 1506 1505 1504 1503 1502 1502 1502 1502 1501 1501 1501 1500 1500 1500 1500
1506 1507 1508 1509 1509 1510 1510 1510 1510 1510 1510 1511 1510 1510 1510 1510 1510 1510 1510 1509 1508 1507 1506 1506 1506 1505 1504 1503 1502 1501 1500 1499 1498 1497 1497 1497 1496 1496 1496 1495 1495 1495 1495
1503 1504 1505 1505 1506 1506 1507 1507 1507 1507 1507 1507 1507 1506 1506 1506 1506 1506 1506 1506 1505 1504 1503 1502 1502 1501 1500 1499 1498 1497 1496 1495 1494 1493 1492 1492 1491 1491 1490 1490 1490 1490 1490
1500 1501 1501 1502 1503 1503 1503 1503 1503 1503 1503 1503 1503 1503 1502 1502 1502 1502 1502 1503 1503 1501 1499 1498 1498 1497 1496 1495 1494 1492 1491 1490 1489 1488 1487 1487 1486 1486 1485 1485 1485 1484 1484
1496 1497 1498 1498 1499 1500 1500 1500 1500 1500 1500 1500 1499 1499 1499 1498 1498 1498 1498 1498 1498 1497 1495 1493 1493 1492 1491 1490 1489 1488 1486 1485 1484 1483 1482 1482 1481 1481 1480 1479 1479 1479 1478
1493 1494 1494 1495 1495 1496 1496 1496 1496 1496 1496 1496 1496 1495 1495 1494 1494 1494 1493 1493 1493 1493 1491 1489 1489 1487 1486 1485 1484 1483 1481 1480 1479 1478 1477 1477 1476 1475 1474 1474 1473 1473 1472
1489 1490 1491 1491 1492 1492 1492 1492 1492 1492 1492 1492 1492 1491 1491 1490 1490 1490 1489 1489 1489 1488 1487 1485 1483 1483 1482 1481 1479 1477 1476 1475 1474 1473 1472 1471 1470 1469 1468 1467 1467 1467 1466
1486 1486 1487 1487 1488 1488 1488 1488 1488 1488 1488 1488 1488 1487 1487 1487 1486 1486 1485 1485 1484 1483 1483 1481 1479 1478 1477 1476 1474 1473 1471 1469 1468 1467 1466 1465 1464 1463 1462 1461 1460 1460 1460
1482 1482 1483 1483 1484 1484 1484 1484 1484 1484 1484 1484 1483 1483 1483 1482 1482 1481 1481 1480 1479 1479 1478 1477 1475 1473 1472 1471 1470 1468 1466 1464 1462 1461 1459 1458 1457 1456 1455 1454 1453 1453 1452
1478 1478 1479 1479 1479 1480 1480 1480 1480 1480 1480 1479 1479 1479 1478 1478 1477 1477 1476 1476 1475 1474 1473 1472 1471 1469 1468 1467 1465 1464 1461 1459 1457 1456 1453 1452 1451 1449 1448 1447 1446 1446 1445
1473 1474 1474 1474 1475 1475 1475 1475 1476 1476 1475 1475 1474 1474 1473 1473 1472 1472 1471 1471 1470 1469 1468 1468 1466 1464 1463 1462 1461 1459 1457 1454 1451 1451 1449 1446 1445 1443 1442 1441 1439 1439 1438
1469 1469 1469 1470 1470 1470 1471 1471 1471 1471 1471 1470 1470 1469 1468 1468 1467 1467 1466 1465 1465 1464 1464 1463 1461 1459 1458 1457 1456 1454 1452 1450 1447 1445 1444 1440 1439 1437 1435 1434 1433 1432 1431
1464 1465 1465 1465 1465 1466 1466 1466 1466 1466 1466 1465 1465 1464 1464 1463 1462 1462 1461 1460 1459 1458 1458 1457 1456 1454 1454 1452 1451 1449 1447 1444 1442 1440 1439 1435 1433 1431 1429 1427 1426 1425 1424
1460 1460 1460 1460 1461 1461 1462 1462 1462 1461 1461 1460 1460 1459 1459 1458 1457 1456 1456 1454 1453 1453 1452 1451 1451 1449 1448 1447 1446 1444 1442 1439 1436 1434 1434 1431 1427 1425 1422 1420 1419 1418 1417
1456 1456 1456 1456 1456 1457 1457 1457 1457 1457 1456 1456 1455 1454 1453 1453 1452 1451 1450 1449 1448 1447 1446 1445 1445 1443 1442 1441 1440 1439 1437 1435 1431 1429 1427 1426 1423 1420 1416 1413 1413 1412 1411